Location: Mason
(37.5237°N, 89.2543°W)
Time: 07:35:09
(UTC+00:00)

CZ-4B DEB - Pass Details

Date: 24 January 2021
Orbit: 840 x 861 km, 99.1° (Epoch: 09 March)

Event Time Altitude Azimuth Distance (km) Brightness Sun altitude
Rises 12:05:28 0° 12° (NNE) 3,447 7.4 -12.2°
Reaches altitude 10° 12:07:51 10° 11° (N) 2,506 6.6 -11.7°
Maximum altitude 12:13:25 79° 286° (WNW) 879 4.2 -10.7°
Drops below altitude 10° 12:18:56 10° 200° (SSW) 2,484 6.6 -9.6°
Sets 12:21:18 0° 199° (SSW) 3,415 7.3 -9.2°
